Time,TemperatureF,DewpointF,PressureIn,WindDirection,WindDirectionDegrees,WindSpeedMPH,WindSpeedGustMPH,Humidity,HourlyPrecipIn,Conditions,Clouds,dailyrainin,SoftwareType,DateUTC
2013-05-19 00:03:00,71.0,38.0,29.98,West,270,0.0,0.0,30,0.00,,SKC,0.00,VWS V14.01,2013-05-19 07:03:00,
2013-05-19 00:08:00,71.0,37.2,29.98,West,270,0.0,0.0,29,0.00,,SKC,0.00,VWS V14.01,2013-05-19 07:08:00,
2013-05-19 00:13:00,70.0,36.3,29.98,West,270,0.0,0.0,29,0.00,,SKC,0.00,VWS V14.01,2013-05-19 07:13:00,
2013-05-19 00:18:00,70.0,37.2,29.98,West,270,0.0,0.0,30,0.00,,SKC,0.00,VWS V14.01,2013-05-19 07:18:00,
2013-05-19 00:23:00,70.0,38.0,29.98,West,270,0.0,0.0,31,0.00,,SKC,0.00,VWS V14.01,2013-05-19 07:23:00,
2013-05-19 00:28:00,69.0,38.7,29.98,West,270,0.0,0.0,33,0.00,,SKC,0.00,VWS V14.01,2013-05-19 07:28:00,
2013-05-19 00:33:00,69.0,39.5,29.98,NW,315,0.0,0.0,34,0.00,,SKC,0.00,VWS V14.01,2013-05-19 07:33:00,
2013-05-19 00:38:00,69.0,39.5,29.99,NW,315,0.0,0.0,34,0.00,,SKC,0.00,VWS V14.01,2013-05-19 07:38:00,
2013-05-19 00:43:00,69.0,40.2,29.99,NW,315,0.0,0.0,35,0.00,,SKC,0.00,VWS V14.01,2013-05-19 07:43:00,
2013-05-19 00:48:00,69.0,41.0,29.98,NW,315,0.0,0.0,36,0.00,,SKC,0.00,VWS V14.01,2013-05-19 07:48:00,
2013-05-19 00:53:00,69.0,42.4,29.98,NW,315,0.0,0.0,38,0.00,,SKC,0.00,VWS V14.01,2013-05-19 07:53:00,
2013-05-19 00:58:00,70.0,42.6,29.98,WNW,292,3.0,3.0,37,0.00,,SKC,0.00,VWS V14.01,2013-05-19 07:58:00,
2013-05-19 01:03:00,70.0,41.8,29.98,WNW,292,3.0,3.0,36,0.00,,SKC,0.00,VWS V14.01,2013-05-19 08:03:00,
2013-05-19 01:08:00,70.0,41.8,29.98,West,270,1.0,2.0,36,0.00,,SKC,0.00,VWS V14.01,2013-05-19 08:08:00,
2013-05-19 01:13:00,70.0,41.1,29.98,WNW,292,0.0,0.0,35,0.00,,SKC,0.00,VWS V14.01,2013-05-19 08:13:00,
2013-05-19 01:18:00,70.0,41.1,29.98,WNW,292,0.0,0.0,35,0.00,,SKC,0.00,VWS V14.01,2013-05-19 08:18:00,
2013-05-19 01:23:00,70.0,41.1,29.98,WNW,292,0.0,0.0,35,0.00,,SKC,0.00,VWS V14.01,2013-05-19 08:23:00,
2013-05-19 01:28:00,70.0,41.8,29.98,WNW,292,0.0,0.0,36,0.00,,SKC,0.00,VWS V14.01,2013-05-19 08:28:00,
2013-05-19 01:33:00,69.0,41.0,29.98,NW,315,0.0,0.0,36,0.00,,SKC,0.00,VWS V14.01,2013-05-19 08:33:00,
2013-05-19 01:38:00,69.0,41.0,29.98,NW,315,0.0,0.0,36,0.00,,SKC,0.00,VWS V14.01,2013-05-19 08:38:00,
2013-05-19 01:43:00,69.0,41.0,29.98,North,0,1.0,1.0,36,0.00,,SKC,0.00,VWS V14.01,2013-05-19 08:43:00,
2013-05-19 01:48:00,69.0,41.0,29.98,NNE,22,3.0,3.0,36,0.00,,SKC,0.00,VWS V14.01,2013-05-19 08:48:00,
2013-05-19 01:53:00,68.0,40.1,29.98,North,0,0.0,0.0,36,0.00,,SKC,0.00,VWS V14.01,2013-05-19 08:53:00,
2013-05-19 01:58:00,68.0,40.8,29.98,NNE,22,0.0,0.0,37,0.00,,SKC,0.00,VWS V14.01,2013-05-19 08:58:00,
2013-05-19 02:03:00,68.0,40.1,29.98,NNE,22,0.0,0.0,36,0.00,,SKC,0.00,VWS V14.01,2013-05-19 09:03:00,
2013-05-19 02:08:00,68.0,40.8,29.98,NNE,22,0.0,0.0,37,0.00,,SKC,0.00,VWS V14.01,2013-05-19 09:08:00,
2013-05-19 02:13:00,67.0,39.9,29.97,NNE,22,0.0,0.0,37,0.00,,SKC,0.00,VWS V14.01,2013-05-19 09:13:00,
2013-05-19 02:18:00,67.0,39.9,29.97,NNE,22,0.0,0.0,37,0.00,,SKC,0.00,VWS V14.01,2013-05-19 09:18:00,
2013-05-19 02:23:00,67.0,39.2,29.97,NNE,22,0.0,0.0,36,0.00,,SKC,0.00,VWS V14.01,2013-05-19 09:23:00,
2013-05-19 02:28:00,67.0,39.2,29.97,North,0,0.0,0.0,36,0.00,,SKC,0.00,VWS V14.01,2013-05-19 09:28:00,
2013-05-19 02:33:00,67.0,39.2,29.97,NW,315,0.0,0.0,36,0.00,,SKC,0.00,VWS V14.01,2013-05-19 09:33:00,
2013-05-19 02:38:00,68.0,39.3,29.97,NW,315,0.0,0.0,35,0.00,,SKC,0.00,VWS V14.01,2013-05-19 09:38:00,
2013-05-19 02:43:00,68.0,39.3,29.97,NW,315,0.0,0.0,35,0.00,,SKC,0.00,VWS V14.01,2013-05-19 09:43:00,
2013-05-19 02:48:00,68.0,39.3,29.97,NW,315,0.0,0.0,35,0.00,,SKC,0.00,VWS V14.01,2013-05-19 09:48:00,
2013-05-19 02:53:00,67.0,39.2,29.97,North,0,2.0,3.0,36,0.00,,SKC,0.00,VWS V14.01,2013-05-19 09:53:00,
2013-05-19 02:58:00,67.0,39.2,29.97,North,0,0.0,0.0,36,0.00,,SKC,0.00,VWS V14.01,2013-05-19 09:58:00,
2013-05-19 03:03:00,67.0,39.2,29.97,NW,315,0.0,0.0,36,0.00,,SKC,0.00,VWS V14.01,2013-05-19 10:03:00,
2013-05-19 03:08:00,67.0,39.2,29.97,NNW,338,0.0,0.0,36,0.00,,SKC,0.00,VWS V14.01,2013-05-19 10:08:00,
2013-05-19 03:13:00,66.0,38.3,29.97,NNW,338,0.0,0.0,36,0.00,,SKC,0.00,VWS V14.01,2013-05-19 10:13:00,
2013-05-19 03:18:00,66.0,38.3,29.97,North,0,0.0,0.0,36,0.00,,SKC,0.00,VWS V14.01,2013-05-19 10:18:00,
2013-05-19 03:23:00,66.0,39.0,29.97,NNE,22,0.0,0.0,37,0.00,,SKC,0.00,VWS V14.01,2013-05-19 10:23:00,
2013-05-19 03:28:00,66.0,39.0,29.97,NNE,22,0.0,0.0,37,0.00,,SKC,0.00,VWS V14.01,2013-05-19 10:28:00,
2013-05-19 03:33:00,66.0,39.0,29.97,North,0,1.0,1.0,37,0.00,,SKC,0.00,VWS V14.01,2013-05-19 10:33:00,
2013-05-19 03:38:00,67.0,39.2,29.97,North,0,0.0,0.0,36,0.00,,SKC,0.00,VWS V14.01,2013-05-19 10:38:00,
2013-05-19 03:43:00,67.0,39.2,29.97,NNE,22,0.0,1.0,36,0.00,,SKC,0.00,VWS V14.01,2013-05-19 10:43:00,
2013-05-19 03:48:00,67.0,39.2,29.97,North,0,0.0,0.0,36,0.00,,SKC,0.00,VWS V14.01,2013-05-19 10:48:00,
2013-05-19 03:53:00,66.0,39.0,29.97,North,0,0.0,0.0,37,0.00,,SKC,0.00,VWS V14.01,2013-05-19 10:53:00,
2013-05-19 03:58:00,66.0,39.0,29.97,North,0,0.0,0.0,37,0.00,,SKC,0.00,VWS V14.01,2013-05-19 10:58:00,
2013-05-19 04:03:00,65.0,38.8,29.97,NNE,22,0.0,0.0,38,0.00,,SKC,0.00,VWS V14.01,2013-05-19 11:03:00,
2013-05-19 04:08:00,65.0,39.5,29.97,NNE,22,0.0,0.0,39,0.00,,SKC,0.00,VWS V14.01,2013-05-19 11:08:00,
2013-05-19 04:13:00,65.0,39.5,29.97,North,0,1.0,2.0,39,0.00,,SKC,0.00,VWS V14.01,2013-05-19 11:13:00,
2013-05-19 04:18:00,65.0,39.5,29.97,North,0,0.0,0.0,39,0.00,,SKC,0.00,VWS V14.01,2013-05-19 11:18:00,
2013-05-19 04:23:00,65.0,39.5,29.97,North,0,0.0,0.0,39,0.00,,SKC,0.00,VWS V14.01,2013-05-19 11:23:00,
2013-05-19 04:28:00,65.0,39.5,29.97,NNE,22,3.0,3.0,39,0.00,,SKC,0.00,VWS V14.01,2013-05-19 11:28:00,
2013-05-19 04:33:00,65.0,39.5,29.97,North,0,1.0,2.0,39,0.00,,SKC,0.00,VWS V14.01,2013-05-19 11:33:00,
2013-05-19 04:38:00,65.0,39.5,29.97,North,0,0.0,0.0,39,0.00,,SKC,0.00,VWS V14.01,2013-05-19 11:38:00,
2013-05-19 04:43:00,64.0,39.2,29.97,NNE,22,3.0,4.0,40,0.00,,SKC,0.00,VWS V14.01,2013-05-19 11:43:00,
2013-05-19 04:48:00,64.0,39.2,29.97,NNW,338,0.0,0.0,40,0.00,,SKC,0.00,VWS V14.01,2013-05-19 11:48:00,
2013-05-19 04:53:00,64.0,39.2,29.97,NNW,338,0.0,0.0,40,0.00,,SKC,0.00,VWS V14.01,2013-05-19 11:53:00,
2013-05-19 04:58:00,64.0,39.8,29.97,NNW,338,0.0,0.0,41,0.00,,SKC,0.00,VWS V14.01,2013-05-19 11:58:00,
2013-05-19 05:03:00,64.0,39.8,29.97,North,0,0.0,1.0,41,0.00,,SKC,0.00,VWS V14.01,2013-05-19 12:03:00,
2013-05-19 05:08:00,64.0,39.8,29.98,NNE,22,3.0,3.0,41,0.00,,SKC,0.00,VWS V14.01,2013-05-19 12:08:00,
2013-05-19 05:13:00,64.0,39.8,29.98,North,0,3.0,3.0,41,0.00,,SKC,0.00,VWS V14.01,2013-05-19 12:13:00,
2013-05-19 05:18:00,64.0,39.8,29.98,NNE,22,3.0,3.0,41,0.00,,SKC,0.00,VWS V14.01,2013-05-19 12:18:00,
2013-05-19 05:23:00,64.0,39.8,29.98,NNW,338,3.0,3.0,41,0.00,,SKC,0.00,VWS V14.01,2013-05-19 12:23:00,
2013-05-19 05:28:00,64.0,39.8,29.98,NNE,22,5.0,5.0,41,0.00,,SKC,0.00,VWS V14.01,2013-05-19 12:28:00,
2013-05-19 05:33:00,64.0,39.8,29.98,North,0,3.0,4.0,41,0.00,,SKC,0.00,VWS V14.01,2013-05-19 12:33:00,
2013-05-19 05:38:00,64.0,39.8,29.98,North,0,3.0,3.0,41,0.00,,SKC,0.00,VWS V14.01,2013-05-19 12:38:00,
2013-05-19 05:43:00,64.0,39.8,29.98,NNE,22,3.0,5.0,41,0.00,,SKC,0.00,VWS V14.01,2013-05-19 12:43:00,
2013-05-19 05:48:00,64.0,40.5,29.98,North,0,3.0,3.0,42,0.00,,SKC,0.00,VWS V14.01,2013-05-19 12:48:00,
2013-05-19 05:53:00,64.0,40.5,29.98,North,0,4.0,5.0,42,0.00,,SKC,0.00,VWS V14.01,2013-05-19 12:53:00,
2013-05-19 05:58:00,64.0,40.5,29.98,North,0,4.0,4.0,42,0.00,,SKC,0.00,VWS V14.01,2013-05-19 12:58:00,
2013-05-19 06:03:00,65.0,41.4,29.98,NNE,22,3.0,3.0,42,0.00,,SKC,0.00,VWS V14.01,2013-05-19 13:03:00,
2013-05-19 06:08:00,66.0,41.7,29.98,North,0,0.0,0.0,41,0.00,,SKC,0.00,VWS V14.01,2013-05-19 13:08:00,
2013-05-19 06:13:00,66.0,41.0,29.98,East,90,0.0,0.0,40,0.00,,SKC,0.00,VWS V14.01,2013-05-19 13:13:00,
2013-05-19 06:18:00,66.0,41.0,29.98,SSE,158,1.0,1.0,40,0.00,,SKC,0.00,VWS V14.01,2013-05-19 13:18:00,
2013-05-19 06:23:00,65.0,40.1,29.99,SSE,158,0.0,0.0,40,0.00,,SKC,0.00,VWS V14.01,2013-05-19 13:23:00,
2013-05-19 06:28:00,65.0,40.1,29.98,SSE,158,0.0,0.0,40,0.00,,SKC,0.00,VWS V14.01,2013-05-19 13:28:00,
2013-05-19 06:33:00,65.0,40.1,29.99,SSE,158,0.0,0.0,40,0.00,,SKC,0.00,VWS V14.01,2013-05-19 13:33:00,
2013-05-19 06:38:00,64.0,39.8,29.99,SSE,158,0.0,0.0,41,0.00,,SKC,0.00,VWS V14.01,2013-05-19 13:38:00,
2013-05-19 06:43:00,65.0,41.4,29.99,SSE,158,0.0,0.0,42,0.00,,SKC,0.00,VWS V14.01,2013-05-19 13:43:00,
2013-05-19 06:48:00,65.0,41.4,29.99,North,0,0.0,0.0,42,0.00,,SKC,0.00,VWS V14.01,2013-05-19 13:48:00,
2013-05-19 06:53:00,66.0,42.3,29.99,ENE,68,0.0,0.0,42,0.00,,SKC,0.00,VWS V14.01,2013-05-19 13:53:00,
2013-05-19 06:58:00,67.0,42.5,29.99,ENE,68,0.0,0.0,41,0.00,,SKC,0.00,VWS V14.01,2013-05-19 13:58:00,
2013-05-19 07:03:00,67.0,41.9,29.99,SSE,158,0.0,0.0,40,0.00,,SKC,0.00,VWS V14.01,2013-05-19 14:03:00,
2013-05-19 07:08:00,68.0,42.8,29.99,SSE,158,1.0,2.0,40,0.00,,SKC,0.00,VWS V14.01,2013-05-19 14:08:00,
2013-05-19 07:13:00,69.0,43.0,29.99,South,180,0.0,0.0,39,0.00,,SKC,0.00,VWS V14.01,2013-05-19 14:13:00,
2013-05-19 07:18:00,69.0,43.0,29.99,SSE,158,0.0,0.0,39,0.00,,SKC,0.00,VWS V14.01,2013-05-19 14:18:00,
2013-05-19 07:23:00,70.0,43.2,29.99,SSW,202,0.0,0.0,38,0.00,,SKC,0.00,VWS V14.01,2013-05-19 14:23:00,
2013-05-19 07:28:00,69.0,43.0,30.00,SSW,202,2.0,3.0,39,0.00,,SKC,0.00,VWS V14.01,2013-05-19 14:28:00,
2013-05-19 07:33:00,69.0,43.0,30.00,SSW,202,0.0,1.0,39,0.00,,SKC,0.00,VWS V14.01,2013-05-19 14:33:00,
2013-05-19 07:38:00,70.0,43.9,30.00,SSE,158,0.0,0.0,39,0.00,,SKC,0.00,VWS V14.01,2013-05-19 14:38:00,
2013-05-19 07:43:00,70.0,43.2,30.00,South,180,1.0,2.0,38,0.00,,SKC,0.00,VWS V14.01,2013-05-19 14:43:00,
2013-05-19 07:48:00,71.0,43.4,30.00,South,180,1.0,3.0,37,0.00,,SKC,0.00,VWS V14.01,2013-05-19 14:48:00,
2013-05-19 07:53:00,71.0,43.4,30.00,SSE,158,0.0,0.0,37,0.00,,SKC,0.00,VWS V14.01,2013-05-19 14:53:00,
2013-05-19 07:58:00,72.0,42.9,30.00,South,180,6.0,6.0,35,0.00,,SKC,0.00,VWS V14.01,2013-05-19 14:58:00,
2013-05-19 08:03:00,73.0,43.0,30.00,SSE,158,2.0,3.0,34,0.00,,SKC,0.00,VWS V14.01,2013-05-19 15:03:00,
2013-05-19 08:08:00,74.0,43.1,30.00,SSE,158,0.0,0.0,33,0.00,,SKC,0.00,VWS V14.01,2013-05-19 15:08:00,
2013-05-19 08:13:00,74.0,43.1,30.00,SE,135,3.0,3.0,33,0.00,,SKC,0.00,VWS V14.01,2013-05-19 15:13:00,
2013-05-19 08:18:00,74.0,42.3,30.00,SSE,158,3.0,3.0,32,0.00,,SKC,0.00,VWS V14.01,2013-05-19 15:18:00,
2013-05-19 08:23:00,75.0,43.2,30.00,SSE,158,5.0,6.0,32,0.00,,SKC,0.00,VWS V14.01,2013-05-19 15:23:00,
2013-05-19 08:28:00,76.0,43.2,30.00,SE,135,3.0,3.0,31,0.00,,SKC,0.00,VWS V14.01,2013-05-19 15:28:00,
2013-05-19 08:33:00,76.0,43.2,30.00,South,180,0.0,1.0,31,0.00,,SKC,0.00,VWS V14.01,2013-05-19 15:33:00,
2013-05-19 08:38:00,76.0,43.2,30.00,SSW,202,0.0,1.0,31,0.00,,SKC,0.00,VWS V14.01,2013-05-19 15:38:00,
2013-05-19 08:43:00,76.0,42.4,30.00,SE,135,1.0,2.0,30,0.00,,SKC,0.00,VWS V14.01,2013-05-19 15:43:00,
2013-05-19 08:48:00,76.0,41.5,30.00,SSE,158,5.0,5.0,29,0.00,,SKC,0.00,VWS V14.01,2013-05-19 15:48:00,
2013-05-19 08:53:00,76.0,42.4,30.00,SSE,158,3.0,3.0,30,0.00,,SKC,0.00,VWS V14.01,2013-05-19 15:53:00,
2013-05-19 08:58:00,76.0,42.4,30.00,SSE,158,0.0,0.0,30,0.00,,SKC,0.00,VWS V14.01,2013-05-19 15:58:00,
2013-05-19 09:03:00,77.0,42.3,30.00,SSW,202,3.0,5.0,29,0.00,,SKC,0.00,VWS V14.01,2013-05-19 16:03:00,
2013-05-19 09:08:00,77.0,42.3,30.00,South,180,0.0,0.0,29,0.00,,SKC,0.00,VWS V14.01,2013-05-19 16:08:00,
2013-05-19 09:13:00,77.0,42.3,30.00,WSW,248,4.0,5.0,29,0.00,,SKC,0.00,VWS V14.01,2013-05-19 16:13:00,
2013-05-19 09:18:00,77.0,42.3,30.00,SW,225,5.0,6.0,29,0.00,,SKC,0.00,VWS V14.01,2013-05-19 16:18:00,
2013-05-19 09:23:00,76.0,41.5,30.00,WNW,292,2.0,2.0,29,0.00,,SKC,0.00,VWS V14.01,2013-05-19 16:23:00,
2013-05-19 09:28:00,77.0,42.3,30.00,SSW,202,2.0,3.0,29,0.00,,SKC,0.00,VWS V14.01,2013-05-19 16:28:00,
2013-05-19 09:33:00,77.0,41.4,29.99,SW,225,5.0,5.0,28,0.00,,SKC,0.00,VWS V14.01,2013-05-19 16:33:00,
2013-05-19 09:38:00,77.0,40.5,30.00,West,270,2.0,3.0,27,0.00,,SKC,0.00,VWS V14.01,2013-05-19 16:38:00,
2013-05-19 09:43:00,78.0,41.3,30.00,WSW,248,3.0,4.0,27,0.00,,SKC,0.00,VWS V14.01,2013-05-19 16:43:00,
2013-05-19 09:48:00,77.0,40.5,29.99,WSW,248,6.0,6.0,27,0.00,,SKC,0.00,VWS V14.01,2013-05-19 16:48:00,
2013-05-19 09:53:00,78.0,39.4,29.99,SSW,202,3.0,4.0,25,0.00,,SKC,0.00,VWS V14.01,2013-05-19 16:53:00,
2013-05-19 09:59:00,79.0,40.2,29.99,WSW,248,3.0,5.0,25,0.00,,SKC,0.00,VWS V14.01,2013-05-19 16:59:00,
2013-05-19 10:04:00,79.0,41.2,29.99,SW,225,1.0,3.0,26,0.00,,SKC,0.00,VWS V14.01,2013-05-19 17:04:00,
2013-05-19 10:09:00,79.0,40.2,29.99,South,180,3.0,4.0,25,0.00,,SKC,0.00,VWS V14.01,2013-05-19 17:09:00,
2013-05-19 10:14:00,80.0,41.1,29.99,ESE,112,1.0,3.0,25,0.00,,SKC,0.00,VWS V14.01,2013-05-19 17:14:00,
2013-05-19 10:19:00,79.0,39.2,29.99,WSW,248,0.0,1.0,24,0.00,,SKC,0.00,VWS V14.01,2013-05-19 17:19:00,
2013-05-19 10:24:00,80.0,38.9,29.99,SW,225,1.0,3.0,23,0.00,,SKC,0.00,VWS V14.01,2013-05-19 17:24:00,
2013-05-19 10:29:00,80.0,40.0,29.99,SW,225,6.0,6.0,24,0.00,,SKC,0.00,VWS V14.01,2013-05-19 17:29:00,
2013-05-19 10:34:00,80.0,38.9,29.99,SW,225,1.0,3.0,23,0.00,,SKC,0.00,VWS V14.01,2013-05-19 17:34:00,
2013-05-19 10:39:00,81.0,38.6,29.99,WSW,248,6.0,6.0,22,0.00,,SKC,0.00,VWS V14.01,2013-05-19 17:39:00,
2013-05-19 10:44:00,81.0,39.8,29.99,NW,315,5.0,5.0,23,0.00,,SKC,0.00,VWS V14.01,2013-05-19 17:44:00,
2013-05-19 10:49:00,81.0,39.8,29.98,WSW,248,3.0,3.0,23,0.00,,SKC,0.00,VWS V14.01,2013-05-19 17:49:00,
2013-05-19 10:54:00,81.0,38.6,29.98,SW,225,5.0,7.0,22,0.00,,SKC,0.00,VWS V14.01,2013-05-19 17:54:00,
2013-05-19 10:59:00,82.0,39.4,29.98,West,270,1.0,1.0,22,0.00,,SKC,0.00,VWS V14.01,2013-05-19 17:59:00,
2013-05-19 11:04:00,83.0,39.1,29.98,SSE,158,0.0,0.0,21,0.00,,SKC,0.00,VWS V14.01,2013-05-19 18:04:00,
2013-05-19 11:09:00,83.0,39.1,29.98,SSE,158,4.0,4.0,21,0.00,,SKC,0.00,VWS V14.01,2013-05-19 18:09:00,
2013-05-19 11:14:00,84.0,39.9,29.98,SW,225,5.0,5.0,21,0.00,,SKC,0.00,VWS V14.01,2013-05-19 18:14:00,
2013-05-19 11:19:00,84.0,38.7,29.98,WSW,248,6.0,6.0,20,0.00,,SKC,0.00,VWS V14.01,2013-05-19 18:19:00,
2013-05-19 11:24:00,84.0,38.7,29.98,SSE,158,6.0,8.0,20,0.00,,SKC,0.00,VWS V14.01,2013-05-19 18:24:00,
2013-05-19 11:29:00,84.0,38.7,29.97,South,180,3.0,3.0,20,0.00,,SKC,0.00,VWS V14.01,2013-05-19 18:29:00,
2013-05-19 11:34:00,84.0,38.7,29.97,WSW,248,13.0,14.0,20,0.00,,SKC,0.00,VWS V14.01,2013-05-19 18:34:00,
2013-05-19 11:39:00,83.0,39.1,29.97,West,270,7.0,10.0,21,0.00,,SKC,0.00,VWS V14.01,2013-05-19 18:39:00,
2013-05-19 11:44:00,83.0,37.8,29.97,WNW,292,3.0,4.0,20,0.00,,SKC,0.00,VWS V14.01,2013-05-19 18:44:00,
2013-05-19 11:49:00,83.0,37.8,29.96,WSW,248,3.0,5.0,20,0.00,,SKC,0.00,VWS V14.01,2013-05-19 18:49:00,
2013-05-19 11:54:00,84.0,37.3,29.96,WNW,292,5.0,6.0,19,0.00,,SKC,0.00,VWS V14.01,2013-05-19 18:54:00,
2013-05-19 11:59:00,84.0,38.7,29.96,WSW,248,4.0,4.0,20,0.00,,SKC,0.00,VWS V14.01,2013-05-19 18:59:00,
2013-05-19 12:04:00,84.0,37.3,29.95,WSW,248,11.0,12.0,19,0.00,,SKC,0.00,VWS V14.01,2013-05-19 19:04:00,
2013-05-19 12:09:00,85.0,38.2,29.96,NW,315,4.0,4.0,19,0.00,,SKC,0.00,VWS V14.01,2013-05-19 19:09:00,
2013-05-19 12:14:00,84.0,37.3,29.96,WSW,248,7.0,10.0,19,0.00,,SKC,0.00,VWS V14.01,2013-05-19 19:14:00,
2013-05-19 12:19:00,84.0,36.0,29.95,WSW,248,5.0,5.0,18,0.00,,SKC,0.00,VWS V14.01,2013-05-19 19:19:00,
2013-05-19 12:24:00,85.0,36.8,29.95,WSW,248,9.0,10.0,18,0.00,,SKC,0.00,VWS V14.01,2013-05-19 19:24:00,
2013-05-19 12:29:00,85.0,36.8,29.95,SW,225,9.0,10.0,18,0.00,,SKC,0.00,VWS V14.01,2013-05-19 19:29:00,
2013-05-19 12:34:00,86.0,37.6,29.95,WSW,248,5.0,6.0,18,0.00,,SKC,0.00,VWS V14.01,2013-05-19 19:34:00,
2013-05-19 12:39:00,86.0,36.2,29.95,WSW,248,6.0,6.0,17,0.00,,SKC,0.00,VWS V14.01,2013-05-19 19:39:00,
2013-05-19 12:44:00,85.0,36.8,29.95,WSW,248,6.0,6.0,18,0.00,,SKC,0.00,VWS V14.01,2013-05-19 19:44:00,
2013-05-19 12:49:00,85.0,36.8,29.95,WNW,292,4.0,4.0,18,0.00,,SKC,0.00,VWS V14.01,2013-05-19 19:49:00,
2013-05-19 12:54:00,85.0,36.8,29.94,West,270,5.0,5.0,18,0.00,,SKC,0.00,VWS V14.01,2013-05-19 19:54:00,
2013-05-19 12:59:00,86.0,36.2,29.94,SW,225,9.0,9.0,17,0.00,,SKC,0.00,VWS V14.01,2013-05-19 19:59:00,
2013-05-19 13:04:00,87.0,37.0,29.94,South,180,3.0,5.0,17,0.00,,SKC,0.00,VWS V14.01,2013-05-19 20:04:00,
2013-05-19 13:09:00,87.0,35.4,29.94,WSW,248,13.0,13.0,16,0.00,,SKC,0.00,VWS V14.01,2013-05-19 20:09:00,
2013-05-19 13:14:00,86.0,34.6,29.94,WSW,248,10.0,10.0,16,0.00,,SKC,0.00,VWS V14.01,2013-05-19 20:14:00,
2013-05-19 13:19:00,87.0,35.4,29.94,SW,225,4.0,6.0,16,0.00,,SKC,0.00,VWS V14.01,2013-05-19 20:19:00,
2013-05-19 13:24:00,88.0,34.6,29.93,SSW,202,4.0,5.0,15,0.00,,SKC,0.00,VWS V14.01,2013-05-19 20:24:00,
2013-05-19 13:29:00,87.0,33.8,29.94,WSW,248,2.0,3.0,15,0.00,,SKC,0.00,VWS V14.01,2013-05-19 20:29:00,
2013-05-19 13:34:00,88.0,34.6,29.93,SW,225,10.0,10.0,15,0.00,,SKC,0.00,VWS V14.01,2013-05-19 20:34:00,
2013-05-19 13:39:00,89.0,35.4,29.93,SW,225,3.0,3.0,15,0.00,,SKC,0.00,VWS V14.01,2013-05-19 20:39:00,
2013-05-19 13:44:00,87.0,33.8,29.93,SW,225,3.0,3.0,15,0.00,,SKC,0.00,VWS V14.01,2013-05-19 20:44:00,
2013-05-19 13:49:00,88.0,31.0,29.93,SW,225,6.0,8.0,13,0.00,,SKC,0.00,VWS V14.01,2013-05-19 20:49:00,
2013-05-19 13:54:00,88.0,31.0,29.93,WSW,248,6.0,6.0,13,0.00,,SKC,0.00,VWS V14.01,2013-05-19 20:54:00,
2013-05-19 13:59:00,89.0,31.8,29.93,SW,225,6.0,6.0,13,0.00,,SKC,0.00,VWS V14.01,2013-05-19 20:59:00,
2013-05-19 14:04:00,89.0,31.8,29.93,WSW,248,8.0,8.0,13,0.00,,SKC,0.00,VWS V14.01,2013-05-19 21:04:00,
2013-05-19 14:09:00,88.0,31.0,29.93,WSW,248,4.0,5.0,13,0.00,,SKC,0.00,VWS V14.01,2013-05-19 21:09:00,
2013-05-19 14:14:00,88.0,32.9,29.93,WNW,292,2.0,3.0,14,0.00,,SKC,0.00,VWS V14.01,2013-05-19 21:14:00,
2013-05-19 14:19:00,88.0,34.6,29.92,West,270,13.0,13.0,15,0.00,,SKC,0.00,VWS V14.01,2013-05-19 21:19:00,
2013-05-19 14:24:00,88.0,34.6,29.92,South,180,3.0,6.0,15,0.00,,SKC,0.00,VWS V14.01,2013-05-19 21:24:00,
2013-05-19 14:29:00,88.0,34.6,29.92,WNW,292,11.0,11.0,15,0.00,,SKC,0.00,VWS V14.01,2013-05-19 21:29:00,
2013-05-19 14:34:00,88.0,36.2,29.92,West,270,7.0,7.0,16,0.00,,SKC,0.00,VWS V14.01,2013-05-19 21:34:00,
2013-05-19 14:39:00,88.0,36.2,29.92,WSW,248,6.0,6.0,16,0.00,,SKC,0.00,VWS V14.01,2013-05-19 21:39:00,
2013-05-19 14:44:00,87.0,37.0,29.92,WSW,248,5.0,5.0,17,0.00,,SKC,0.00,VWS V14.01,2013-05-19 21:44:00,
2013-05-19 14:49:00,88.0,37.8,29.92,WSW,248,1.0,1.0,17,0.00,,SKC,0.00,VWS V14.01,2013-05-19 21:49:00,
2013-05-19 14:54:00,89.0,37.0,29.91,NW,315,10.0,11.0,16,0.00,,SKC,0.00,VWS V14.01,2013-05-19 21:54:00,
2013-05-19 14:59:00,88.0,34.6,29.92,West,270,8.0,10.0,15,0.00,,SKC,0.00,VWS V14.01,2013-05-19 21:59:00,
2013-05-19 15:04:00,87.0,35.4,29.91,WSW,248,9.0,11.0,16,0.00,,SKC,0.00,VWS V14.01,2013-05-19 22:04:00,
2013-05-19 15:09:00,88.0,34.6,29.91,WSW,248,6.0,9.0,15,0.00,,SKC,0.00,VWS V14.01,2013-05-19 22:09:00,
2013-05-19 15:14:00,88.0,36.2,29.91,SW,225,11.0,14.0,16,0.00,,SKC,0.00,VWS V14.01,2013-05-19 22:14:00,
2013-05-19 15:19:00,89.0,37.0,29.91,South,180,8.0,10.0,16,0.00,,SKC,0.00,VWS V14.01,2013-05-19 22:19:00,
2013-05-19 15:24:00,88.0,37.8,29.91,WSW,248,3.0,5.0,17,0.00,,SKC,0.00,VWS V14.01,2013-05-19 22:24:00,
2013-05-19 15:30:00,88.0,37.8,29.91,SW,225,9.0,10.0,17,0.00,,SKC,0.00,VWS V14.01,2013-05-19 22:30:00,
2013-05-19 15:35:00,89.0,37.0,29.91,WSW,248,6.0,7.0,16,0.00,,SKC,0.00,VWS V14.01,2013-05-19 22:35:00,
2013-05-19 15:40:00,89.0,37.0,29.91,SW,225,8.0,8.0,16,0.00,,SKC,0.00,VWS V14.01,2013-05-19 22:40:00,
2013-05-19 15:45:00,90.0,36.2,29.90,WSW,248,7.0,7.0,15,0.00,,SKC,0.00,VWS V14.01,2013-05-19 22:45:00,
2013-05-19 15:50:00,90.0,36.2,29.90,West,270,7.0,7.0,15,0.00,,SKC,0.00,VWS V14.01,2013-05-19 22:50:00,
2013-05-19 15:55:00,89.0,35.4,29.90,WNW,292,7.0,11.0,15,0.00,,SKC,0.00,VWS V14.01,2013-05-19 22:55:00,
2013-05-19 16:00:00,89.0,37.0,29.90,WSW,248,10.0,11.0,16,0.00,,SKC,0.00,VWS V14.01,2013-05-19 23:00:00,
2013-05-19 16:05:00,88.0,36.2,29.90,WSW,248,8.0,10.0,16,0.00,,SKC,0.00,VWS V14.01,2013-05-19 23:05:00,
2013-05-19 16:10:00,88.0,36.2,29.90,WSW,248,3.0,4.0,16,0.00,,SKC,0.00,VWS V14.01,2013-05-19 23:10:00,
2013-05-19 16:15:00,88.0,36.2,29.90,WSW,248,10.0,14.0,16,0.00,,SKC,0.00,VWS V14.01,2013-05-19 23:15:00,
2013-05-19 16:21:00,88.0,34.6,29.89,WNW,292,8.0,9.0,15,0.00,,SKC,0.00,VWS V14.01,2013-05-19 23:21:00,
2013-05-19 16:26:00,89.0,35.4,29.89,WSW,248,6.0,7.0,15,0.00,,SKC,0.00,VWS V14.01,2013-05-19 23:26:00,
2013-05-19 16:31:00,89.0,35.4,29.89,NNW,338,0.0,1.0,15,0.00,,SKC,0.00,VWS V14.01,2013-05-19 23:31:00,
2013-05-19 16:37:00,88.0,34.6,29.89,WNW,292,12.0,16.0,15,0.00,,SKC,0.00,VWS V14.01,2013-05-19 23:37:00,
2013-05-19 16:43:00,88.0,36.2,29.89,West,270,9.0,11.0,16,0.00,,SKC,0.00,VWS V14.01,2013-05-19 23:43:00,
2013-05-19 16:49:00,88.0,34.6,29.89,SW,225,4.0,4.0,15,0.00,,SKC,0.00,VWS V14.01,2013-05-19 23:49:00,
2013-05-19 16:55:00,88.0,36.2,29.89,West,270,3.0,6.0,16,0.00,,SKC,0.00,VWS V14.01,2013-05-19 23:55:00,
2013-05-19 17:01:00,88.0,34.6,29.89,West,270,13.0,14.0,15,0.00,,SKC,0.00,VWS V14.01,2013-05-20 00:01:00,
2013-05-19 17:07:00,88.0,34.6,29.89,WSW,248,10.0,11.0,15,0.00,,SKC,0.00,VWS V14.01,2013-05-20 00:07:00,
2013-05-19 17:13:00,87.0,35.4,29.89,SSW,202,5.0,6.0,16,0.00,,SKC,0.00,VWS V14.01,2013-05-20 00:13:00,
2013-05-19 17:19:00,89.0,35.4,29.89,SW,225,2.0,2.0,15,0.00,,SKC,0.00,VWS V14.01,2013-05-20 00:19:00,
2013-05-19 17:24:00,88.0,34.6,29.88,WSW,248,8.0,9.0,15,0.00,,SKC,0.00,VWS V14.01,2013-05-20 00:24:00,
2013-05-19 17:29:00,88.0,34.6,29.88,NW,315,8.0,11.0,15,0.00,,SKC,0.00,VWS V14.01,2013-05-20 00:29:00,
2013-05-19 17:34:00,88.0,34.6,29.89,WSW,248,6.0,6.0,15,0.00,,SKC,0.00,VWS V14.01,2013-05-20 00:34:00,
2013-05-19 17:39:00,88.0,34.6,29.88,West,270,5.0,6.0,15,0.00,,SKC,0.00,VWS V14.01,2013-05-20 00:39:00,
2013-05-19 17:44:00,88.0,34.6,29.88,WNW,292,6.0,7.0,15,0.00,,SKC,0.00,VWS V14.01,2013-05-20 00:44:00,
2013-05-19 17:50:00,88.0,34.6,29.88,West,270,5.0,8.0,15,0.00,,SKC,0.00,VWS V14.01,2013-05-20 00:50:00,
2013-05-19 17:55:00,87.0,33.8,29.88,WSW,248,8.0,13.0,15,0.00,,SKC,0.00,VWS V14.01,2013-05-20 00:55:00,
2013-05-19 18:01:00,87.0,35.4,29.88,WSW,248,7.0,7.0,16,0.00,,SKC,0.00,VWS V14.01,2013-05-20 01:01:00,
2013-05-19 18:06:00,87.0,33.8,29.88,West,270,2.0,5.0,15,0.00,,SKC,0.00,VWS V14.01,2013-05-20 01:06:00,
2013-05-19 18:11:00,88.0,34.6,29.88,SSW,202,1.0,2.0,15,0.00,,SKC,0.00,VWS V14.01,2013-05-20 01:11:00,
2013-05-19 18:16:00,89.0,35.4,29.88,WSW,248,0.0,0.0,15,0.00,,SKC,0.00,VWS V14.01,2013-05-20 01:16:00,
2013-05-19 18:21:00,89.0,35.4,29.88,SW,225,6.0,7.0,15,0.00,,SKC,0.00,VWS V14.01,2013-05-20 01:21:00,
2013-05-19 18:26:00,87.0,35.4,29.89,SSW,202,6.0,7.0,16,0.00,,SKC,0.00,VWS V14.01,2013-05-20 01:26:00,
2013-05-19 18:32:00,87.0,37.0,29.88,NW,315,3.0,3.0,17,0.00,,SKC,0.00,VWS V14.01,2013-05-20 01:32:00,
2013-05-19 18:37:00,86.0,36.2,29.88,West,270,8.0,8.0,17,0.00,,SKC,0.00,VWS V14.01,2013-05-20 01:37:00,
2013-05-19 18:42:00,86.0,36.2,29.88,WNW,292,6.0,7.0,17,0.00,,SKC,0.00,VWS V14.01,2013-05-20 01:42:00,
2013-05-19 18:47:00,86.0,36.2,29.88,WNW,292,3.0,3.0,17,0.00,,SKC,0.00,VWS V14.01,2013-05-20 01:47:00,
2013-05-19 18:52:00,86.0,36.2,29.89,NW,315,5.0,5.0,17,0.00,,SKC,0.00,VWS V14.01,2013-05-20 01:52:00,
2013-05-19 18:57:00,85.0,36.8,29.89,WNW,292,5.0,5.0,18,0.00,,SKC,0.00,VWS V14.01,2013-05-20 01:57:00,
2013-05-19 19:03:00,84.0,36.0,29.89,WNW,292,8.0,8.0,18,0.00,,SKC,0.00,VWS V14.01,2013-05-20 02:03:00,
2013-05-19 19:08:00,84.0,37.3,29.89,WNW,292,8.0,8.0,19,0.00,,SKC,0.00,VWS V14.01,2013-05-20 02:08:00,
2013-05-19 19:13:00,84.0,37.3,29.89,WNW,292,4.0,4.0,19,0.00,,SKC,0.00,VWS V14.01,2013-05-20 02:13:00,
2013-05-19 19:18:00,84.0,37.3,29.89,WNW,292,3.0,3.0,19,0.00,,SKC,0.00,VWS V14.01,2013-05-20 02:18:00,
2013-05-19 19:23:00,83.0,36.5,29.89,WNW,292,3.0,3.0,19,0.00,,SKC,0.00,VWS V14.01,2013-05-20 02:23:00,
2013-05-19 19:28:00,83.0,37.8,29.89,WNW,292,5.0,5.0,20,0.00,,SKC,0.00,VWS V14.01,2013-05-20 02:28:00,
2013-05-19 19:33:00,83.0,37.8,29.90,WNW,292,5.0,5.0,20,0.00,,SKC,0.00,VWS V14.01,2013-05-20 02:33:00,
2013-05-19 19:39:00,82.0,37.0,29.90,NW,315,3.0,3.0,20,0.00,,SKC,0.00,VWS V14.01,2013-05-20 02:39:00,
2013-05-19 19:44:00,82.0,37.0,29.90,NW,315,1.0,2.0,20,0.00,,SKC,0.00,VWS V14.01,2013-05-20 02:44:00,
2013-05-19 19:49:00,82.0,38.2,29.90,NW,315,0.0,0.0,21,0.00,,SKC,0.00,VWS V14.01,2013-05-20 02:49:00,
2013-05-19 19:54:00,82.0,38.2,29.90,NW,315,3.0,4.0,21,0.00,,SKC,0.00,VWS V14.01,2013-05-20 02:54:00,
2013-05-19 19:59:00,81.0,37.4,29.90,NW,315,0.0,0.0,21,0.00,,SKC,0.00,VWS V14.01,2013-05-20 02:59:00,
2013-05-19 20:04:00,81.0,37.4,29.90,NW,315,0.0,1.0,21,0.00,,SKC,0.00,VWS V14.01,2013-05-20 03:04:00,
2013-05-19 20:09:00,81.0,37.4,29.90,NW,315,0.0,0.0,21,0.00,,SKC,0.00,VWS V14.01,2013-05-20 03:09:00,
2013-05-19 20:15:00,81.0,38.6,29.91,NW,315,0.0,0.0,22,0.00,,SKC,0.00,VWS V14.01,2013-05-20 03:15:00,
2013-05-19 20:20:00,80.0,37.8,29.91,NW,315,0.0,1.0,22,0.00,,SKC,0.00,VWS V14.01,2013-05-20 03:20:00,
2013-05-19 20:25:00,80.0,37.8,29.91,NW,315,1.0,1.0,22,0.00,,SKC,0.00,VWS V14.01,2013-05-20 03:25:00,
2013-05-19 20:30:00,80.0,37.8,29.91,NW,315,4.0,5.0,22,0.00,,SKC,0.00,VWS V14.01,2013-05-20 03:30:00,
2013-05-19 20:35:00,79.0,37.0,29.91,NW,315,5.0,5.0,22,0.00,,SKC,0.00,VWS V14.01,2013-05-20 03:35:00,
2013-05-19 20:40:00,79.0,37.0,29.91,WNW,292,5.0,6.0,22,0.00,,SKC,0.00,VWS V14.01,2013-05-20 03:40:00,
2013-05-19 20:45:00,79.0,35.8,29.91,NW,315,5.0,5.0,21,0.00,,SKC,0.00,VWS V14.01,2013-05-20 03:45:00,
2013-05-19 20:51:00,79.0,35.8,29.91,NW,315,3.0,5.0,21,0.00,,SKC,0.00,VWS V14.01,2013-05-20 03:51:00,
2013-05-19 20:57:00,79.0,35.8,29.92,NW,315,4.0,5.0,21,0.00,,SKC,0.00,VWS V14.01,2013-05-20 03:57:00,
2013-05-19 21:01:00,79.0,35.8,29.92,NW,315,4.0,5.0,21,0.00,,SKC,0.00,VWS V14.01,2013-05-20 04:01:00,
2013-05-19 21:02:00,79.0,35.8,29.92,NW,315,3.0,4.0,21,0.00,,SKC,0.00,VWS V14.01,2013-05-20 04:02:00,
2013-05-19 21:03:00,79.0,35.8,29.92,NW,315,0.0,1.0,21,0.00,,SKC,0.00,VWS V14.01,2013-05-20 04:03:00,
2013-05-19 21:04:00,79.0,35.8,29.92,NNW,338,5.0,5.0,21,0.00,,SKC,0.00,VWS V14.01,2013-05-20 04:04:00,
2013-05-19 21:05:00,79.0,35.8,29.92,NW,315,1.0,3.0,21,0.00,,SKC,0.00,VWS V14.01,2013-05-20 04:05:00,
2013-05-19 21:10:00,79.0,35.8,29.92,NNW,338,0.0,0.0,21,0.00,,SKC,0.00,VWS V14.01,2013-05-20 04:10:00,
2013-05-19 21:16:00,79.0,35.8,29.92,NNE,22,0.0,0.0,21,0.00,,SKC,0.00,VWS V14.01,2013-05-20 04:16:00,
2013-05-19 21:21:00,78.0,34.9,29.92,NNE,22,0.0,0.0,21,0.00,,SKC,0.00,VWS V14.01,2013-05-20 04:21:00,
2013-05-19 21:26:00,78.0,36.1,29.93,North,0,2.0,2.0,22,0.00,,SKC,0.00,VWS V14.01,2013-05-20 04:26:00,
2013-05-19 21:32:00,77.0,35.3,29.93,NNE,22,0.0,1.0,22,0.00,,SKC,0.00,VWS V14.01,2013-05-20 04:32:00,
2013-05-19 21:38:00,76.0,35.6,29.93,NNE,22,0.0,0.0,23,0.00,,SKC,0.00,VWS V14.01,2013-05-20 04:38:00,
2013-05-19 21:44:00,76.0,35.6,29.93,NNE,22,0.0,0.0,23,0.00,,SKC,0.00,VWS V14.01,2013-05-20 04:44:00,
2013-05-19 21:49:00,76.0,35.6,29.93,NNE,22,0.0,1.0,23,0.00,,SKC,0.00,VWS V14.01,2013-05-20 04:49:00,
2013-05-19 21:54:00,76.0,36.6,29.93,NNE,22,2.0,2.0,24,0.00,,SKC,0.00,VWS V14.01,2013-05-20 04:54:00,
2013-05-19 21:59:00,76.0,35.6,29.93,NE,45,0.0,0.0,23,0.00,,SKC,0.00,VWS V14.01,2013-05-20 04:59:00,
2013-05-19 22:04:00,76.0,35.6,29.93,NNE,22,0.0,0.0,23,0.00,,SKC,0.00,VWS V14.01,2013-05-20 05:04:00,
2013-05-19 22:09:00,76.0,35.6,29.93,North,0,3.0,3.0,23,0.00,,SKC,0.00,VWS V14.01,2013-05-20 05:09:00,
2013-05-19 22:15:00,76.0,35.6,29.93,NNE,22,0.0,0.0,23,0.00,,SKC,0.00,VWS V14.01,2013-05-20 05:15:00,
2013-05-19 22:20:00,76.0,35.6,29.93,North,0,1.0,2.0,23,0.00,,SKC,0.00,VWS V14.01,2013-05-20 05:20:00,
2013-05-19 22:25:00,76.0,35.6,29.94,NNE,22,0.0,0.0,23,0.00,,SKC,0.00,VWS V14.01,2013-05-20 05:25:00,
2013-05-19 22:31:00,76.0,35.6,29.94,North,0,3.0,3.0,23,0.00,,SKC,0.00,VWS V14.01,2013-05-20 05:31:00,
2013-05-19 22:37:00,76.0,35.6,29.94,North,0,2.0,3.0,23,0.00,,SKC,0.00,VWS V14.01,2013-05-20 05:37:00,
2013-05-19 22:42:00,76.0,35.6,29.94,North,0,1.0,1.0,23,0.00,,SKC,0.00,VWS V14.01,2013-05-20 05:42:00,
2013-05-19 22:47:00,75.0,34.7,29.94,North,0,1.0,1.0,23,0.00,,SKC,0.00,VWS V14.01,2013-05-20 05:47:00,
2013-05-19 22:52:00,75.0,34.7,29.94,North,0,2.0,3.0,23,0.00,,SKC,0.00,VWS V14.01,2013-05-20 05:52:00,
2013-05-19 22:57:00,75.0,34.7,29.94,NE,45,0.0,0.0,23,0.00,,SKC,0.00,VWS V14.01,2013-05-20 05:57:00,
2013-05-19 23:02:00,75.0,34.7,29.94,NNE,22,1.0,2.0,23,0.00,,SKC,0.00,VWS V14.01,2013-05-20 06:02:00,
2013-05-19 23:08:00,76.0,35.6,29.94,NNE,22,0.0,0.0,23,0.00,,SKC,0.00,VWS V14.01,2013-05-20 06:08:00,
2013-05-19 23:14:00,75.0,34.7,29.94,North,0,0.0,0.0,23,0.00,,SKC,0.00,VWS V14.01,2013-05-20 06:14:00,
2013-05-19 23:20:00,75.0,34.7,29.94,NNE,22,0.0,0.0,23,0.00,,SKC,0.00,VWS V14.01,2013-05-20 06:20:00,
2013-05-19 23:25:00,75.0,34.7,29.94,NNE,22,0.0,0.0,23,0.00,,SKC,0.00,VWS V14.01,2013-05-20 06:25:00,
2013-05-19 23:30:00,75.0,34.7,29.94,NNE,22,0.0,0.0,23,0.00,,SKC,0.00,VWS V14.01,2013-05-20 06:30:00,
2013-05-19 23:35:00,75.0,34.7,29.94,North,0,0.0,0.0,23,0.00,,SKC,0.00,VWS V14.01,2013-05-20 06:35:00,
2013-05-19 23:40:00,75.0,34.7,29.94,NNW,338,0.0,0.0,23,0.00,,SKC,0.00,VWS V14.01,2013-05-20 06:40:00,
2013-05-19 23:45:00,73.0,34.1,29.94,West,270,4.0,5.0,24,0.00,,SKC,0.00,VWS V14.01,2013-05-20 06:45:00,
2013-05-19 23:51:00,73.0,35.1,29.95,WSW,248,6.0,6.0,25,0.00,,SKC,0.00,VWS V14.01,2013-05-20 06:51:00,
2013-05-19 23:57:00,73.0,35.1,29.95,West,270,6.0,6.0,25,0.00,,SKC,0.00,VWS V14.01,2013-05-20 06:57:00,